Terug naar catalogus

STARLINK-31793

ActiefCommunicatieVLEO
NORAD 60053·PAYLOAD·🇺🇸 United States

Gelanceerd Jun 8, 2024 vanaf Vandenberg Space Force Base

Loading…

Volgende Passages (komende 24 uur)

TLE

VersSource: CelesTrak SupGP

Epoch: Sep 14, 2026, 22:34 UTC

1 60053C 24112R   26257.94076389  .00056293  00000+0  16637-2 0  2578
2 60053  53.1561 277.3783 0001230  90.4570 280.4069 15.34353863    16

Volg STARLINK-31793 in realtime met AllMySat

Download on the App Store